MM1PTT-13 Weather Reports


Display with metric or nautical units.
time (UTC)temp
F
wind
direction
speed
MPH
gust
MPH
rain 1hr
in
rain 24hr
in
rain mn
in
humidity
%
barometer
mb
20260506061542 41 63 2.0 2.0 0.00 0.00 0.00 79 987.8
20260506061042 41 44 2.0 3.0 0.00 0.00 0.00 80 988.1
20260506060542 41 52 0.0 1.0 0.00 0.00 0.00 81 987.8
20260506051043 40 38 0.0 1.0 0.00 0.00 0.00 80 988.1
20260506050542 40 44 1.0 1.0 0.00 0.00 0.00 80 987.8
20260506045043 39 58 0.0 0.0 0.00 0.00 0.00 81 987.8
20260506044542 39 46 0.0 1.0 0.00 0.00 0.00 82 987.8
20260506044043 39 51 0.0 0.0 0.00 0.00 0.00 82 988.1
20260506043542 39 37 0.0 0.0 0.00 0.00 0.00 82 987.8
20260506043043 39 62 0.0 0.0 0.00 0.00 0.00 81 987.8
20260506042543 39 108 2.0 2.0 0.00 0.00 0.00 81 987.8
20260506042042 39 93 0.0 0.0 0.00 0.00 0.00 80 987.8
20260506041542 39 48 1.0 2.0 0.00 0.00 0.00 80 987.8
20260506041042 39 66 0.0 0.0 0.00 0.00 0.00 80 987.8
20260506040542 39 64 0.0 1.0 0.00 0.00 0.00 80 987.8
20260506040042 39 45 0.0 0.0 0.00 0.00 0.00 80 987.8
20260506035542 39 7 0.0 0.0 0.00 0.00 0.00 80 987.8
20260506035044 40 42 0.0 1.0 0.00 0.00 0.00 80 987.8
20260506034542 40 53 0.0 0.0 0.00 0.00 0.00 80 988.1
20260506034043 40 77 0.0 1.0 0.00 0.00 0.00 80 987.8
20260506033542 40 56 0.0 1.0 0.00 0.00 0.00 79 987.8
20260506033042 40 60 0.0 1.0 0.00 0.00 0.00 79 988.1
20260506032543 40 72 1.0 2.0 0.00 0.00 0.00 78 988.1
20260506032042 40 47 0.0 0.0 0.00 0.00 0.00 78 988.1
20260506031542 40 62 0.0 0.0 0.00 0.00 0.00 77 988.1
20260506031043 41 26 1.0 1.0 0.00 0.00 0.00 77 988.1
20260506030542 40 63 2.0 2.0 0.00 0.00 0.00 77 988.1
20260506030042 41 27 0.0 1.0 0.00 0.00 0.00 77 988.1
20260506025543 41 52 0.0 1.0 0.00 0.00 0.00 77 988.1
20260506025043 41 58 1.0 2.0 0.00 0.00 0.00 77 988.1
20260506024542 41 63 0.0 1.0 0.00 0.00 0.00 77 988.1
20260506024043 41 88 1.0 2.0 0.00 0.00 0.00 77 988.1
20260506023543 41 57 0.0 1.0 0.00 0.00 0.00 77 988.1
20260506023042 41 46 1.0 2.0 0.00 0.00 0.00 77 987.8
20260506022543 41 36 1.0 2.0 0.00 0.00 0.00 77 988.1
20260506022042 41 39 0.0 0.0 0.00 0.00 0.00 76 987.8
20260506021542 41 102 0.0 1.0 0.00 0.00 0.00 76 988.1
20260506021043 41 90 1.0 2.0 0.00 0.00 0.00 75 988.1
20260506020543 41 11 1.0 2.0 0.00 0.00 0.00 75 988.1
20260506020043 42 31 1.0 2.0 0.00 0.00 0.00 75 988.1
20260506015543 42 31 1.0 2.0 0.00 0.00 0.00 75 988.1
20260506015043 42 58 1.0 1.0 0.00 0.00 0.00 75 988.1
20260506014542 42 74 1.0 2.0 0.00 0.00 0.00 74 988.1
20260506014042 42 62 1.0 2.0 0.00 0.00 0.00 74 988.1
20260506013543 42 23 1.0 2.0 0.00 0.00 0.00 74 988.1
20260506013043 42 58 1.0 2.0 0.00 0.00 0.00 74 988.1
20260506012543 42 39 2.0 3.0 0.00 0.00 0.00 74 988.5
20260506012042 42 56 3.0 4.0 0.00 0.00 0.00 73 988.5
20260506011543 43 38 3.0 4.0 0.00 0.00 0.00 73 988.5
20260506011043 43 80 0.0 1.0 0.00 0.00 0.00 74 988.1
20260506010543 43 28 0.0 1.0 0.00 0.00 0.00 74 988.5
20260506010043 43 67 0.0 1.0 0.00 0.00 0.00 74 988.5
20260506005543 43 69 1.0 2.0 0.00 0.00 0.00 73 988.5
20260506005043 43 70 1.0 2.0 0.00 0.00 0.00 73 988.5
20260506004542 43 96 0.0 1.0 0.00 0.00 0.00 73 988.5
20260506004043 43 62 0.0 1.0 0.00 0.00 0.00 72 988.5
20260506003542 43 33 2.0 4.0 0.00 0.00 0.00 71 988.5
20260506003042 43 20 1.0 2.0 0.00 0.00 0.00 71 988.5
20260506002545 43 110 1.0 2.0 0.00 0.00 0.00 70 988.5
20260506002042 43 71 3.0 3.0 0.00 0.00 0.00 71 988.5
20260506001543 43 64 1.0 2.0 0.00 0.00 0.00 71 988.5
20260506001044 43 49 3.0 4.0 0.00 0.00 0.00 71 988.5
20260506000542 43 26 2.0 2.0 0.00 0.00 0.00 71 988.1
20260506000043 43 48 2.0 3.0 0.00 0.00 0.00 71 988.5
20260505235543 43 28 2.0 3.0 0.00 0.00 0.00 72 988.5
20260505235043 43 54 1.0 2.0 0.00 0.00 0.00 72 988.5
20260505234542 43 52 2.0 3.0 0.00 0.00 0.00 73 988.5
20260505234042 43 34 2.0 3.0 0.00 0.00 0.00 72 988.5
20260505233542 43 84 0.0 0.0 0.00 0.00 0.00 73 988.5
20260505233043 43 92 1.0 2.0 0.00 0.00 0.00 72 988.5
20260505232542 43 160 3.0 5.0 0.00 0.00 0.00 72 988.5
20260505232042 43 60 0.0 1.0 0.00 0.00 0.00 72 988.5
20260505231543 43 30 2.0 2.0 0.00 0.00 0.00 72 988.5
20260505231042 43 16 1.0 2.0 0.00 0.00 0.00 71 988.8
20260505230545 43 12 1.0 2.0 0.00 0.00 0.00 72 988.5
20260505230042 43 39 0.0 1.0 0.00 0.00 0.00 72 988.5
20260505225542 43 17 2.0 2.0 0.00 0.00 0.00 72 988.5
20260505225043 43 52 1.0 2.0 0.00 0.00 0.00 72 988.5
20260505224543 43 24 2.0 2.0 0.00 0.00 0.00 71 988.8
20260505224042 44 72 2.0 3.0 0.00 0.00 0.00 71 988.8
20260505223542 44 77 0.0 1.0 0.00 0.00 0.00 70 988.8
20260505223044 44 32 1.0 2.0 0.00 0.00 0.00 70 988.8
20260505222545 44 45 2.0 2.0 0.00 0.00 0.00 70 988.8
20260505222043 44 35 3.0 4.0 0.00 0.00 0.00 69 988.8
20260505221543 44 28 2.0 2.0 0.00 0.00 0.00 70 988.8
20260505221043 44 25 3.0 3.0 0.00 0.00 0.00 70 988.8
20260505220543 44 63 3.0 4.0 0.00 0.00 0.00 69 988.8
20260505220043 44 55 2.0 2.0 0.00 0.00 0.00 69 988.8
20260505215543 44 35 2.0 4.0 0.00 0.00 0.00 69 988.8
20260505215044 44 74 1.0 2.0 0.00 0.00 0.00 70 988.8
20260505214544 44 53 2.0 2.0 0.00 0.00 0.00 69 988.8
20260505214043 44 62 3.0 3.0 0.00 0.00 0.00 69 988.5
20260505213543 44 39 3.0 4.0 0.00 0.00 0.00 69 988.8
20260505213042 44 12 2.0 3.0 0.00 0.00 0.00 69 988.5
20260505212545 44 37 3.0 3.0 0.00 0.00 0.00 69 988.8
20260505212043 44 125 1.0 2.0 0.00 0.00 0.00 69 988.5
20260505211543 44 71 3.0 5.0 0.00 0.00 0.00 70 988.5
20260505211043 44 20 2.0 3.0 0.00 0.00 0.00 69 988.8
20260505210543 44 46 4.0 6.0 0.00 0.00 0.00 69 988.5
20260505210043 44 30 2.0 3.0 0.00 0.00 0.00 69 988.5
20260505205543 44 51 3.0 5.0 0.00 0.00 0.00 68 988.8
20260505205046 44 24 2.0 4.0 0.00 0.00 0.00 69 988.5
20260505204543 44 52 4.0 5.0 0.00 0.00 0.00 68 988.8
20260505204043 44 29 1.0 3.0 0.00 0.00 0.00 68 988.5
20260505203543 45 118 4.0 5.0 0.00 0.00 0.00 67 988.5
20260505203042 45 53 4.0 7.0 0.00 0.00 0.00 67 988.5
20260505202543 45 49 3.0 5.0 0.00 0.00 0.00 68 988.5
20260505202043 45 46 4.0 5.0 0.00 0.00 0.00 67 988.1
20260505201543 45 31 3.0 5.0 0.00 0.00 0.00 67 988.5
20260505201042 45 109 4.0 7.0 0.00 0.00 0.00 67 988.1
20260505200543 45 27 6.0 8.0 0.00 0.00 0.00 67 988.1
20260505200046 45 30 3.0 5.0 0.00 0.00 0.00 66 988.1
20260505195545 45 347 5.0 6.0 0.00 0.00 0.00 67 988.1
20260505195045 45 119 4.0 5.0 0.00 0.00 0.00 66 988.5
20260505194542 45 35 4.0 6.0 0.00 0.00 0.00 66 988.1
20260505194043 45 17 5.0 6.0 0.00 0.00 0.00 66 988.5
20260505193542 45 98 5.0 7.0 0.00 0.00 0.00 66 988.1
20260505193043 45 53 5.0 7.0 0.00 0.00 0.00 66 988.1
20260505192542 45 131 2.0 3.0 0.00 0.00 0.00 67 988.1
20260505192043 45 17 3.0 4.0 0.00 0.00 0.00 66 988.1
20260505191544 46 86 5.0 7.0 0.00 0.00 0.00 66 988.1
20260505191043 46 21 5.0 7.0 0.00 0.00 0.00 65 988.1
20260505190542 46 69 7.0 8.0 0.00 0.00 0.00 67 987.8
20260505190043 46 45 7.0 10.0 0.00 0.00 0.00 66 988.1
20260505185543 46 69 3.0 5.0 0.00 0.00 0.00 68 988.1
20260505185043 46 54 8.0 10.0 0.00 0.00 0.00 67 987.8
20260505184542 46 113 4.0 5.0 0.00 0.00 0.00 67 987.8
20260505184043 46 149 3.0 5.0 0.00 0.00 0.00 67 987.5
20260505183543 47 40 3.0 5.0 0.00 0.00 0.00 68 987.8
20260505183043 47 66 5.0 7.0 0.00 0.00 0.00 67 987.8
20260505182546 47 88 7.0 9.0 0.00 0.00 0.00 67 987.8
20260505182043 47 34 5.0 5.0 0.00 0.00 0.00 68 987.5
20260505181543 47 65 6.0 7.0 0.00 0.00 0.00 66 987.8
20260505181044 47 38 5.0 5.0 0.00 0.00 0.00 66 987.8
20260505180543 47 47 9.0 12.0 0.00 0.00 0.00 65 987.8
20260505180043 47 19 8.0 10.0 0.00 0.00 0.00 64 986.8
20260505175543 48 43 6.0 7.0 0.00 0.00 0.00 65 987.8
20260505175043 49 13 7.0 7.0 0.00 0.00 0.00 64 987.5
20260505174544 48 47 3.0 5.0 0.00 0.00 0.00 64 987.8
20260505174044 48 87 4.0 6.0 0.00 0.00 0.00 65 987.8
20260505173543 48 64 2.0 4.0 0.00 0.00 0.00 65 987.5
20260505173046 48 55 9.0 12.0 0.00 0.00 0.00 63 987.5
20260505172542 48 35 4.0 8.0 0.00 0.00 0.00 65 987.5
20260505172044 48 86 3.0 7.0 0.00 0.00 0.00 64 987.5
20260505171543 48 27 3.0 6.0 0.00 0.00 0.00 65 987.5
20260505171042 48 104 4.0 7.0 0.00 0.00 0.00 64 987.5
20260505170542 48 116 5.0 8.0 0.00 0.00 0.00 65 987.5
20260505170043 49 54 6.0 9.0 0.00 0.00 0.00 65 987.5
20260505165542 49 25 7.0 8.0 0.00 0.00 0.00 63 987.5
20260505165042 49 158 9.0 13.0 0.00 0.00 0.00 63 987.5
20260505164543 49 13 7.0 11.0 0.00 0.00 0.00 63 987.5
20260505164043 50 62 9.0 15.0 0.00 0.00 0.00 64 987.5
20260505163152 50 63 8.0 12.0 0.00 0.00 0.00 64 987.5
20260505162543 50 57 5.0 6.0 0.00 0.00 0.00 66 987.5
20260505162043 50 55 6.0 9.0 0.00 0.00 0.00 64 987.1
20260505161543 50 48 7.0 10.0 0.00 0.00 0.00 64 987.1
20260505161043 50 55 3.0 5.0 0.00 0.00 0.00 67 987.1
20260505160543 50 10 8.0 12.0 0.00 0.00 0.00 65 987.1
20260505153043 50 107 7.0 11.0 0.00 0.00 0.00 65 987.1
20260505152542 50 6 12.0 14.0 0.00 0.00 0.00 65 987.5
20260505152042 50 16 9.0 11.0 0.00 0.00 0.00 65 987.1
20260505151544 51 37 6.0 9.0 0.00 0.00 0.00 65 987.1
20260505151045 51 4 6.0 9.0 0.00 0.00 0.00 66 987.5
20260505150544 51 139 3.0 4.0 0.00 0.00 0.00 67 987.5
20260505140543 52 71 12.0 15.0 0.00 0.00 0.00 64 987.1
20260505124542 53 35 9.0 13.0 0.00 0.00 0.00 58 986.5
20260505124043 55 32 7.0 9.0 0.00 0.00 0.00 49 986.5
20260505123544 55 195 2.0 2.0 0.00 0.00 0.00 43 986.5
20260505123042 55 345 2.0 3.0 0.00 0.00 0.00 41 986.5
20260505122543 55 85 2.0 3.0 0.00 0.00 0.00 44 986.5
20260505122042 55 45 4.0 5.0 0.00 0.00 0.00 44 986.5
20260505121544 55 333 1.0 2.0 0.00 0.00 0.00 44 986.5
20260505121044 55 41 3.0 4.0 0.00 0.00 0.00 43 986.5
20260505120543 56 337 1.0 2.0 0.00 0.00 0.00 40 986.5
20260505120044 55 23 1.0 2.0 0.00 0.00 0.00 47 986.5
20260505115543 55 28 0.0 1.0 0.00 0.00 0.00 46 986.5
20260505115043 53 229 3.0 4.0 0.00 0.00 0.00 46 986.5
20260505114542 53 70 2.0 3.0 0.00 0.00 0.00 47 986.5
20260505114044 53 23 3.0 5.0 0.00 0.00 0.00 50 986.5
20260505113542 53 32 4.0 5.0 0.00 0.00 0.00 49 986.5
20260505113043 53 132 2.0 3.0 0.00 0.00 0.00 49 986.5
20260505112543 53 59 4.0 5.0 0.00 0.00 0.00 46 986.5
20260505112043 53 350 3.0 5.0 0.00 0.00 0.00 48 986.5
20260505111542 54 21 5.0 6.0 0.00 0.00 0.00 47 986.5
20260505111042 55 151 3.0 4.0 0.00 0.00 0.00 45 986.5
20260505110542 55 126 0.0 2.0 0.00 0.00 0.00 45 986.5
20260505102042 53 65 7.0 10.0 0.00 0.00 0.00 53 986.5
20260505101542 54 2 4.0 5.0 0.00 0.00 0.00 55 986.5
20260505101042 53 73 3.0 3.0 0.00 0.00 0.00 56 986.5
20260505100542 52 60 3.0 4.0 0.00 0.00 0.00 52 986.5
20260505100043 53 293 2.0 2.0 0.00 0.00 0.00 52 986.5
20260505095542 53 13 1.0 2.0 0.00 0.00 0.00 53 986.5
20260505095042 53 124 0.0 0.0 0.00 0.00 0.00 51 986.5
20260505094542 51 61 1.0 2.0 0.00 0.00 0.00 53 986.5
20260505094044 52 66 3.0 5.0 0.00 0.00 0.00 52 986.5
20260505093542 52 52 1.0 1.0 0.00 0.00 0.00 55 986.5
20260505093044 52 324 2.0 2.0 0.00 0.00 0.00 53 986.5
20260505092544 52 50 1.0 2.0 0.00 0.00 0.00 54 986.5
20260505092043 51 18 3.0 5.0 0.00 0.00 0.00 54 986.5
20260505091543 51 46 3.0 4.0 0.00 0.00 0.00 59 986.5
20260505091042 51 45 4.0 5.0 0.00 0.00 0.00 58 986.5
20260505090543 51 6 5.0 7.0 0.00 0.00 0.00 57 986.5
20260505090042 51 35 2.0 2.0 0.00 0.00 0.00 57 986.5
20260505085542 51 32 1.0 2.0 0.00 0.00 0.00 56 986.5
20260505085042 51 28 2.0 2.0 0.00 0.00 0.00 57 986.5
20260505084542 51 2 2.0 3.0 0.00 0.00 0.00 59 986.1
20260505084045 50 69 3.0 4.0 0.00 0.00 0.00 58 986.1
20260505083543 50 49 4.0 6.0 0.00 0.00 0.00 59 986.1
20260505083043 50 42 3.0 3.0 0.00 0.00 0.00 61 986.5
20260505082542 50 327 2.0 3.0 0.00 0.00 0.00 61 986.1
20260505082042 50 20 2.0 3.0 0.00 0.00 0.00 64 986.1
20260505081545 50 5 3.0 4.0 0.00 0.00 0.00 64 986.1
20260505081044 50 339 3.0 4.0 0.00 0.00 0.00 64 986.1
20260505080542 50 19 3.0 3.0 0.00 0.00 0.00 63 986.1
20260505080042 50 45 1.0 2.0 0.00 0.00 0.00 64 986.1
20260505075542 50 7 3.0 4.0 0.00 0.00 0.00 63 986.1
20260505075046 52 10 5.0 6.0 0.00 0.00 0.00 59 986.1
20260505074543 51 46 5.0 5.0 0.00 0.00 0.00 63 986.1
20260505074042 52 6 2.0 5.0 0.00 0.00 0.00 64 985.8
20260505073543 53 29 1.0 1.0 0.00 0.00 0.00 65 986.1
20260505073042 51 24 2.0 2.0 0.00 0.00 0.00 68 985.8
20260505072543 51 47 2.0 3.0 0.00 0.00 0.00 68 985.8
20260505072043 52 352 3.0 4.0 0.00 0.00 0.00 66 986.1
20260505071542 52 277 1.0 2.0 0.00 0.00 0.00 69 986.1
20260505071044 51 251 2.0 2.0 0.00 0.00 0.00 71 985.8
20260505070543 49 333 3.0 4.0 0.00 0.00 0.00 72 986.1
20260505070042 49 315 4.0 5.0 0.00 0.00 0.00 74 986.1
20260505065542 49 6 2.0 2.0 0.00 0.00 0.00 74 986.1
20260505065042 48 237 2.0 2.0 0.00 0.00 0.00 78 986.1
20260505064542 47 339 1.0 2.0 0.00 0.00 0.00 80 985.8
20260505064042 47 332 1.0 2.0 0.00 0.00 0.00 80 985.8
20260505063543 47 18 0.0 0.0 0.00 0.00 0.00 81 985.8
20260505063042 47 330 1.0 2.0 0.00 0.00 0.00 81 985.8
20260505062543 47 334 1.0 2.0 0.00 0.00 0.00 81 985.8
20260505062044 47 299 1.0 1.0 0.00 0.00 0.00 81 985.8